Year,Month,Day,Hour,Minute,Value (Times are PST for temperature in C)
2014,02,21,00,00,4.70
2014,02,21,00,01,4.70
2014,02,21,00,02,4.70
2014,02,21,00,03,4.60
2014,02,21,00,04,4.60
2014,02,21,00,05,4.60
2014,02,21,00,06,4.50
2014,02,21,00,07,4.50
2014,02,21,00,08,4.40
2014,02,21,00,09,4.30
2014,02,21,00,10,4.30
2014,02,21,00,11,4.20
2014,02,21,00,12,4.20
2014,02,21,00,13,4.20
2014,02,21,00,14,4.20
2014,02,21,00,15,4.20
2014,02,21,00,16,4.10
2014,02,21,00,17,4.10
2014,02,21,00,18,4.10
2014,02,21,00,19,4.10
2014,02,21,00,20,4.10
2014,02,21,00,21,4.10
2014,02,21,00,22,4.20
2014,02,21,00,23,4.20
2014,02,21,00,24,4.20
2014,02,21,00,25,4.20
2014,02,21,00,26,4.20
2014,02,21,00,27,4.20
2014,02,21,00,28,4.20
2014,02,21,00,29,4.20
2014,02,21,00,30,4.10
2014,02,21,00,31,4.10
2014,02,21,00,32,4.00
2014,02,21,00,33,3.90
2014,02,21,00,34,3.90
2014,02,21,00,35,3.90
2014,02,21,00,36,3.80
2014,02,21,00,37,3.80
2014,02,21,00,38,3.80
2014,02,21,00,39,3.70
2014,02,21,00,40,3.60
2014,02,21,00,41,3.60
2014,02,21,00,42,3.50
2014,02,21,00,43,3.50
2014,02,21,00,44,3.40
2014,02,21,00,45,3.40
2014,02,21,00,46,3.40
2014,02,21,00,47,3.40
2014,02,21,00,48,3.40
2014,02,21,00,49,3.40
2014,02,21,00,50,3.40
2014,02,21,00,51,3.40
2014,02,21,00,52,3.40
2014,02,21,00,53,3.30
2014,02,21,00,54,3.30
2014,02,21,00,55,3.30
2014,02,21,00,56,3.20
2014,02,21,00,57,3.20
2014,02,21,00,58,3.20
2014,02,21,00,59,3.10
2014,02,21,01,00,3.10
2014,02,21,01,01,3.10
2014,02,21,01,02,3.00
2014,02,21,01,03,3.00
2014,02,21,01,04,3.00
2014,02,21,01,05,2.90
2014,02,21,01,06,2.90
2014,02,21,01,07,2.90
2014,02,21,01,08,2.90
2014,02,21,01,09,2.90
2014,02,21,01,10,2.80
2014,02,21,01,11,2.80
2014,02,21,01,12,2.80
2014,02,21,01,13,2.80
2014,02,21,01,14,2.80
2014,02,21,01,15,2.80
2014,02,21,01,16,2.80
2014,02,21,01,17,2.70
2014,02,21,01,18,2.70
2014,02,21,01,19,2.70
2014,02,21,01,20,2.70
2014,02,21,01,21,2.60
2014,02,21,01,22,2.60
2014,02,21,01,23,2.60
2014,02,21,01,24,2.60
2014,02,21,01,25,2.60
2014,02,21,01,26,2.60
2014,02,21,01,27,2.70
2014,02,21,01,28,2.70
2014,02,21,01,29,2.70
2014,02,21,01,30,2.70
2014,02,21,01,31,2.70
2014,02,21,01,32,2.70
2014,02,21,01,33,2.70
2014,02,21,01,34,2.70
2014,02,21,01,35,2.70
2014,02,21,01,36,2.70
2014,02,21,01,37,2.70
2014,02,21,01,38,2.70
2014,02,21,01,39,2.60
2014,02,21,01,40,2.60
2014,02,21,01,41,2.60
2014,02,21,01,42,2.60
2014,02,21,01,43,2.60
2014,02,21,01,44,2.60
2014,02,21,01,45,2.60
2014,02,21,01,46,2.60
2014,02,21,01,47,2.60
2014,02,21,01,48,2.50
2014,02,21,01,49,2.50
2014,02,21,01,50,2.50
2014,02,21,01,51,2.40
2014,02,21,01,52,2.40
2014,02,21,01,53,2.40
2014,02,21,01,54,2.40
2014,02,21,01,55,2.40
2014,02,21,01,56,2.30
2014,02,21,01,57,2.30
2014,02,21,01,58,2.30
2014,02,21,01,59,2.30
2014,02,21,02,00,2.30
2014,02,21,02,01,2.30
2014,02,21,02,02,2.30
2014,02,21,02,03,2.30
2014,02,21,02,04,2.30
2014,02,21,02,05,2.30
2014,02,21,02,06,2.30
2014,02,21,02,07,2.30
2014,02,21,02,08,2.30
2014,02,21,02,09,2.20
2014,02,21,02,10,2.20
2014,02,21,02,11,2.20
2014,02,21,02,12,2.20
2014,02,21,02,13,2.20
2014,02,21,02,14,2.20
2014,02,21,02,15,2.20
2014,02,21,02,16,2.10
2014,02,21,02,17,2.10
2014,02,21,02,18,2.10
2014,02,21,02,19,2.00
2014,02,21,02,20,2.00
2014,02,21,02,21,2.00
2014,02,21,02,22,1.90
2014,02,21,02,23,1.90
2014,02,21,02,24,1.90
2014,02,21,02,25,1.90
2014,02,21,02,26,1.90
2014,02,21,02,27,1.80
2014,02,21,02,28,1.80
2014,02,21,02,29,1.80
2014,02,21,02,30,1.70
2014,02,21,02,31,1.70
2014,02,21,02,32,1.70
2014,02,21,02,33,1.70
2014,02,21,02,34,1.60
2014,02,21,02,35,1.60
2014,02,21,02,36,1.60
2014,02,21,02,37,1.60
2014,02,21,02,38,1.50
2014,02,21,02,39,1.50
2014,02,21,02,40,1.50
2014,02,21,02,41,1.50
2014,02,21,02,42,1.50
2014,02,21,02,43,1.50
2014,02,21,02,44,1.60
2014,02,21,02,45,1.60
2014,02,21,02,46,1.60
2014,02,21,02,47,1.50
2014,02,21,02,48,1.50
2014,02,21,02,49,1.50
2014,02,21,02,50,1.50
2014,02,21,02,51,1.60
2014,02,21,02,52,1.60
2014,02,21,02,53,1.60
2014,02,21,02,54,1.50
2014,02,21,02,55,1.50
2014,02,21,02,56,1.50
2014,02,21,02,57,1.40
2014,02,21,02,58,1.40
2014,02,21,02,59,1.30
2014,02,21,03,00,1.30
2014,02,21,03,01,1.30
2014,02,21,03,02,1.30
2014,02,21,03,03,1.30
2014,02,21,03,04,1.30
2014,02,21,03,05,1.30
2014,02,21,03,06,1.30
2014,02,21,03,07,1.30
2014,02,21,03,08,1.30
2014,02,21,03,09,1.30
2014,02,21,03,10,1.30
2014,02,21,03,11,1.30
2014,02,21,03,12,1.20
2014,02,21,03,13,1.20
2014,02,21,03,14,1.20
2014,02,21,03,15,1.10
2014,02,21,03,16,1.10
2014,02,21,03,17,1.10
2014,02,21,03,18,1.10
2014,02,21,03,19,1.10
2014,02,21,03,20,1.10
2014,02,21,03,21,1.10
2014,02,21,03,22,1.10
2014,02,21,03,23,1.10
2014,02,21,03,24,1.00
2014,02,21,03,25,1.00
2014,02,21,03,26,0.90
2014,02,21,03,27,0.90
2014,02,21,03,28,0.80
2014,02,21,03,29,0.80
2014,02,21,03,30,0.80
2014,02,21,03,31,0.80
2014,02,21,03,32,0.80
2014,02,21,03,33,0.80
2014,02,21,03,34,0.80
2014,02,21,03,35,0.80
2014,02,21,03,36,0.70
2014,02,21,03,37,0.70
2014,02,21,03,38,0.70
2014,02,21,03,39,0.70
2014,02,21,03,40,0.70
2014,02,21,03,41,0.70
2014,02,21,03,42,0.60
2014,02,21,03,43,0.60
2014,02,21,03,44,0.60
2014,02,21,03,45,0.60
2014,02,21,03,46,0.60
2014,02,21,03,47,0.60
2014,02,21,03,48,0.60
2014,02,21,03,49,0.60
2014,02,21,03,50,0.60
2014,02,21,03,51,0.60
2014,02,21,03,52,0.60
2014,02,21,03,53,0.50
2014,02,21,03,54,0.60
2014,02,21,03,55,0.60
2014,02,21,03,56,0.50
2014,02,21,03,57,0.50
2014,02,21,03,58,0.50
2014,02,21,03,59,0.50
2014,02,21,04,00,0.50
2014,02,21,04,01,0.40
2014,02,21,04,02,0.40
2014,02,21,04,03,0.40
2014,02,21,04,04,0.40
2014,02,21,04,05,0.40
2014,02,21,04,06,0.40
2014,02,21,04,07,0.40
2014,02,21,04,08,0.40
2014,02,21,04,09,0.40
2014,02,21,04,10,0.40
2014,02,21,04,11,0.30
2014,02,21,04,12,0.30
2014,02,21,04,13,0.30
2014,02,21,04,14,0.30
2014,02,21,04,15,0.30
2014,02,21,04,16,0.30
2014,02,21,04,17,0.30
2014,02,21,04,18,0.20
2014,02,21,04,19,0.20
2014,02,21,04,20,0.20
2014,02,21,04,21,0.20
2014,02,21,04,22,0.20
2014,02,21,04,23,0.20
2014,02,21,04,24,0.10
2014,02,21,04,25,0.10
2014,02,21,04,26,0.10
2014,02,21,04,27,0.20
2014,02,21,04,28,0.20
2014,02,21,04,29,0.10
2014,02,21,04,30,0.20
2014,02,21,04,31,0.10
2014,02,21,04,32,0.10
2014,02,21,04,33,0.10
2014,02,21,04,34,0.10
2014,02,21,04,35,0.10
2014,02,21,04,36,0.10
2014,02,21,04,37,0.20
2014,02,21,04,38,0.20
2014,02,21,04,39,0.20
2014,02,21,04,40,0.20
2014,02,21,04,41,0.20
2014,02,21,04,42,0.20
2014,02,21,04,43,0.20
2014,02,21,04,44,0.20
2014,02,21,04,45,0.20
2014,02,21,04,46,0.20
2014,02,21,04,47,0.20
2014,02,21,04,48,0.10
2014,02,21,04,49,0.10
2014,02,21,04,50,0.10
2014,02,21,04,51,0.10
2014,02,21,04,52,0.10
2014,02,21,04,53,0.00
2014,02,21,04,54,0.00
2014,02,21,04,55,0.00
2014,02,21,04,56,0.00
2014,02,21,04,57,0.00
2014,02,21,04,58,0.00
2014,02,21,04,59,0.00
2014,02,21,05,00,0.00
2014,02,21,05,01,0.10
2014,02,21,05,02,0.10
2014,02,21,05,03,0.10
2014,02,21,05,04,0.10
2014,02,21,05,05,0.00
2014,02,21,05,06,0.00
2014,02,21,05,07,0.00
2014,02,21,05,08,0.00
2014,02,21,05,09,0.00
2014,02,21,05,10,0.00
2014,02,21,05,11,0.00
2014,02,21,05,12,0.00
2014,02,21,05,13,0.00
2014,02,21,05,14,0.00
2014,02,21,05,15,0.00
2014,02,21,05,16,0.00
2014,02,21,05,17,0.00
2014,02,21,05,18,-0.10
2014,02,21,05,19,-0.10
2014,02,21,05,20,-0.10
2014,02,21,05,21,0.00
2014,02,21,05,22,0.00
2014,02,21,05,23,0.00
2014,02,21,05,24,0.10
2014,02,21,05,25,0.10
2014,02,21,05,26,0.10
2014,02,21,05,27,0.20
2014,02,21,05,28,0.20
2014,02,21,05,29,0.20
2014,02,21,05,30,0.30
2014,02,21,05,31,0.20
2014,02,21,05,32,0.20
2014,02,21,05,33,0.20
2014,02,21,05,34,0.10
2014,02,21,05,35,0.10
2014,02,21,05,36,0.10
2014,02,21,05,37,0.10
2014,02,21,05,38,0.10
2014,02,21,05,39,0.10
2014,02,21,05,40,0.10
2014,02,21,05,41,0.10
2014,02,21,05,42,0.10
2014,02,21,05,43,0.10
2014,02,21,05,44,0.10
2014,02,21,05,45,0.10
2014,02,21,05,46,0.10
2014,02,21,05,47,0.10
2014,02,21,05,48,0.10
2014,02,21,05,49,0.10
2014,02,21,05,50,0.00
2014,02,21,05,51,0.00
2014,02,21,05,52,0.00
2014,02,21,05,53,-0.10
2014,02,21,05,54,0.00
2014,02,21,05,55,0.00
2014,02,21,05,56,0.00
2014,02,21,05,57,0.00
2014,02,21,05,58,0.00
2014,02,21,05,59,0.00
2014,02,21,06,00,0.00
2014,02,21,06,01,0.00
2014,02,21,06,02,0.00
2014,02,21,06,03,-0.10
2014,02,21,06,04,-0.10
2014,02,21,06,05,-0.10
2014,02,21,06,06,-0.10
2014,02,21,06,07,-0.10
2014,02,21,06,08,-0.10
2014,02,21,06,09,-0.10
2014,02,21,06,10,-0.10
2014,02,21,06,11,-0.10
2014,02,21,06,12,-0.10
2014,02,21,06,13,-0.20
2014,02,21,06,14,-0.20
2014,02,21,06,15,-0.20
2014,02,21,06,16,-0.20
2014,02,21,06,17,-0.20
2014,02,21,06,18,-0.20
2014,02,21,06,19,-0.10
2014,02,21,06,20,-0.10
2014,02,21,06,21,-0.10
2014,02,21,06,22,-0.10
2014,02,21,06,23,-0.10
2014,02,21,06,24,-0.10
2014,02,21,06,25,-0.10
2014,02,21,06,26,-0.10
2014,02,21,06,27,-0.10
2014,02,21,06,28,-0.10
2014,02,21,06,29,-0.10
2014,02,21,06,30,-0.10
2014,02,21,06,31,-0.10
2014,02,21,06,32,-0.10
2014,02,21,06,33,-0.10
2014,02,21,06,34,-0.10
2014,02,21,06,35,0.00
2014,02,21,06,36,-0.10
2014,02,21,06,37,-0.10
2014,02,21,06,38,-0.10
2014,02,21,06,39,-0.10
2014,02,21,06,40,-0.10
2014,02,21,06,41,-0.10
2014,02,21,06,42,-0.10
2014,02,21,06,43,-0.10
2014,02,21,06,44,-0.10
2014,02,21,06,45,-0.10
2014,02,21,06,46,-0.10
2014,02,21,06,47,-0.10
2014,02,21,06,48,-0.10
2014,02,21,06,49,-0.10
2014,02,21,06,50,-0.10
2014,02,21,06,51,-0.10
2014,02,21,06,52,-0.10
2014,02,21,06,53,0.00
2014,02,21,06,54,0.00
2014,02,21,06,55,0.00
2014,02,21,06,56,-0.10
2014,02,21,06,57,-0.10
2014,02,21,06,58,-0.10
2014,02,21,06,59,-0.10
2014,02,21,07,00,-0.10
2014,02,21,07,01,-0.10
2014,02,21,07,02,-0.10
2014,02,21,07,03,-0.10
2014,02,21,07,04,-0.10
2014,02,21,07,05,-0.10
2014,02,21,07,06,-0.10
2014,02,21,07,07,-0.10
2014,02,21,07,08,-0.10
2014,02,21,07,09,-0.10
2014,02,21,07,10,-0.10
2014,02,21,07,11,-0.10
2014,02,21,07,12,-0.10
2014,02,21,07,13,-0.20
2014,02,21,07,14,-0.30
2014,02,21,07,15,-0.30
2014,02,21,07,16,-0.30
2014,02,21,07,17,-0.30
2014,02,21,07,18,-0.30
2014,02,21,07,19,-0.30
2014,02,21,07,20,-0.30
2014,02,21,07,21,-0.30
2014,02,21,07,22,-0.30
2014,02,21,07,23,-0.30
2014,02,21,16,27,6.80
2014,02,21,16,28,6.80
2014,02,21,16,29,6.80
2014,02,21,16,30,6.80
2014,02,21,16,31,6.80
2014,02,21,16,32,6.70
2014,02,21,16,33,6.70
2014,02,21,16,34,6.70
2014,02,21,16,35,6.70
2014,02,21,16,36,6.70
2014,02,21,16,37,6.70
2014,02,21,16,38,6.70
2014,02,21,16,39,6.70
2014,02,21,16,40,6.70
2014,02,21,16,41,6.70
2014,02,21,16,42,6.60
2014,02,21,16,43,6.60
2014,02,21,16,44,6.60
2014,02,21,16,45,6.60
2014,02,21,16,46,6.60
2014,02,21,16,47,6.60
2014,02,21,16,48,6.50
2014,02,21,16,49,6.50
2014,02,21,16,50,6.50
2014,02,21,16,51,6.50
2014,02,21,16,52,6.50
2014,02,21,16,53,6.40
2014,02,21,16,54,6.40
2014,02,21,16,55,6.40
2014,02,21,16,56,6.40
2014,02,21,16,57,6.40
2014,02,21,16,58,6.40
2014,02,21,16,59,6.40
2014,02,21,17,00,6.40
2014,02,21,17,01,6.40
2014,02,21,17,02,6.30
2014,02,21,17,03,6.30
2014,02,21,17,04,6.30
2014,02,21,17,05,6.30
2014,02,21,17,06,6.30
2014,02,21,17,07,6.30
2014,02,21,17,08,6.30
2014,02,21,17,09,6.30
2014,02,21,17,10,6.20
2014,02,21,17,11,6.20
2014,02,21,17,12,6.20
2014,02,21,17,13,6.20
2014,02,21,17,14,6.20
2014,02,21,17,15,6.20
2014,02,21,17,16,6.20
2014,02,21,17,17,6.20
2014,02,21,17,18,6.20
2014,02,21,17,19,6.20
2014,02,21,17,20,6.10
2014,02,21,17,21,6.10
2014,02,21,17,22,6.10
2014,02,21,17,23,6.10
2014,02,21,17,24,6.10
2014,02,21,17,25,6.10
2014,02,21,17,26,6.10
2014,02,21,17,27,6.00
2014,02,21,17,28,6.00
2014,02,21,17,29,6.00
2014,02,21,17,30,6.00
2014,02,21,17,31,5.90
2014,02,21,17,32,5.90
2014,02,21,17,33,5.90
2014,02,21,17,34,5.90
2014,02,21,17,35,5.90
2014,02,21,17,36,5.80
2014,02,21,17,37,5.80
2014,02,21,17,38,5.80
2014,02,21,17,39,5.80
2014,02,21,17,40,5.80
2014,02,21,17,41,5.80
2014,02,21,17,42,5.80
2014,02,21,17,43,5.70
2014,02,21,17,44,5.70
2014,02,21,17,45,5.70
2014,02,21,17,46,5.70
2014,02,21,17,47,5.70
2014,02,21,17,48,5.70
2014,02,21,17,49,5.60
2014,02,21,17,50,5.60
2014,02,21,17,51,5.60
2014,02,21,17,52,5.70
2014,02,21,17,53,5.70
2014,02,21,17,54,5.70
2014,02,21,17,55,5.70
2014,02,21,17,56,5.70
2014,02,21,17,57,5.70
2014,02,21,17,58,5.70
2014,02,21,17,59,5.70
2014,02,21,18,00,5.70
2014,02,21,18,01,5.70
2014,02,21,18,02,5.70
2014,02,21,18,03,5.60
2014,02,21,18,04,5.60
2014,02,21,18,05,5.60
2014,02,21,18,06,5.60
2014,02,21,18,07,5.60
2014,02,21,18,08,5.60
2014,02,21,18,09,5.60
2014,02,21,18,10,5.60
2014,02,21,18,11,5.60
2014,02,21,18,12,5.60
2014,02,21,18,13,5.60
2014,02,21,18,14,5.50
2014,02,21,18,15,5.50
2014,02,21,18,16,5.50
2014,02,21,18,17,5.50
2014,02,21,18,18,5.50
2014,02,21,18,19,5.40
2014,02,21,18,20,5.40
2014,02,21,18,21,5.40
2014,02,21,18,22,5.30
2014,02,21,18,23,5.30
2014,02,21,18,24,5.30
2014,02,21,18,25,5.20
2014,02,21,18,26,5.10
2014,02,21,18,27,5.10
2014,02,21,18,28,5.00
2014,02,21,18,29,4.90
2014,02,21,18,30,4.90
2014,02,21,18,31,4.80
2014,02,21,18,32,4.70
2014,02,21,18,33,4.70
2014,02,21,18,34,4.60
2014,02,21,18,35,4.50
2014,02,21,18,36,4.50
2014,02,21,18,37,4.40
2014,02,21,18,38,4.30
2014,02,21,18,39,4.30
2014,02,21,18,40,4.20
2014,02,21,18,41,4.20
2014,02,21,18,42,4.10
2014,02,21,18,43,4.00
2014,02,21,18,44,4.00
2014,02,21,18,45,3.90
2014,02,21,18,46,3.90
2014,02,21,18,47,3.80
2014,02,21,18,48,3.80
2014,02,21,18,49,3.70
2014,02,21,18,50,3.60
2014,02,21,18,51,3.60
2014,02,21,18,52,3.50
2014,02,21,18,53,3.50
2014,02,21,18,54,3.40
2014,02,21,18,55,3.40
2014,02,21,18,56,3.30
2014,02,21,18,57,3.30
2014,02,21,18,58,3.20
2014,02,21,18,59,3.20
2014,02,21,19,00,3.10
2014,02,21,19,01,3.10
2014,02,21,19,02,3.00
2014,02,21,19,03,3.00
2014,02,21,19,04,2.90
2014,02,21,19,05,2.90
2014,02,21,19,06,2.80
2014,02,21,19,07,2.80
2014,02,21,19,08,2.80
2014,02,21,19,09,2.70
2014,02,21,19,10,2.70
2014,02,21,19,11,2.70
2014,02,21,19,12,2.70
2014,02,21,19,13,2.60
2014,02,21,19,14,2.60
2014,02,21,19,15,2.50
2014,02,21,19,16,2.50
2014,02,21,19,17,2.50
2014,02,21,19,18,2.50
2014,02,21,19,19,2.40
2014,02,21,19,20,2.40
2014,02,21,19,21,2.40
2014,02,21,19,22,2.40
2014,02,21,19,23,2.30
2014,02,21,19,24,2.30
2014,02,21,19,25,2.30
2014,02,21,19,26,2.30
2014,02,21,19,27,2.30
2014,02,21,19,28,2.30
2014,02,21,19,29,2.20
2014,02,21,19,30,2.20
2014,02,21,19,31,2.20
2014,02,21,19,32,2.20
2014,02,21,19,33,2.10
2014,02,21,19,34,2.10
2014,02,21,19,35,2.10
2014,02,21,19,36,2.10
2014,02,21,19,37,2.10
2014,02,21,19,38,2.00
2014,02,21,19,39,2.00
2014,02,21,19,40,2.00
2014,02,21,19,41,2.00
2014,02,21,19,42,1.90
2014,02,21,19,43,1.90
2014,02,21,19,44,1.90
2014,02,21,19,45,1.90
2014,02,21,19,46,1.90
2014,02,21,19,47,1.90
2014,02,21,19,48,1.80
2014,02,21,19,49,1.80
2014,02,21,19,50,1.80
2014,02,21,19,51,1.80
2014,02,21,19,52,1.70
2014,02,21,19,53,1.70
2014,02,21,19,54,1.70
2014,02,21,19,55,1.60
2014,02,21,19,56,1.60
2014,02,21,19,57,1.60
2014,02,21,19,58,1.50
2014,02,21,19,59,1.50
2014,02,21,20,00,1.50
2014,02,21,20,01,1.50
2014,02,21,20,02,1.40
2014,02,21,20,03,1.40
2014,02,21,20,04,1.40
2014,02,21,20,05,1.40
2014,02,21,20,06,1.40
2014,02,21,20,07,1.40
2014,02,21,20,08,1.30
2014,02,21,20,09,1.30
2014,02,21,20,10,1.30
2014,02,21,20,11,1.30
2014,02,21,20,12,1.30
2014,02,21,20,13,1.30
2014,02,21,20,14,1.30
2014,02,21,20,15,1.30
2014,02,21,20,16,1.20
2014,02,21,20,17,1.20
2014,02,21,20,18,1.20
2014,02,21,20,19,1.10
2014,02,21,20,20,1.10
2014,02,21,20,21,1.10
2014,02,21,20,22,1.00
2014,02,21,20,23,1.00
2014,02,21,20,24,1.00
2014,02,21,20,25,0.90
2014,02,21,20,26,0.90
2014,02,21,20,27,0.90
2014,02,21,20,28,0.90
2014,02,21,20,29,0.90
2014,02,21,20,30,0.90
2014,02,21,20,31,0.90
2014,02,21,20,32,0.90
2014,02,21,20,33,0.90
2014,02,21,20,34,0.80
2014,02,21,20,35,0.80
2014,02,21,20,36,0.80
2014,02,21,20,37,0.80
2014,02,21,20,38,0.80
2014,02,21,20,39,0.80
2014,02,21,20,40,0.80
2014,02,21,20,41,0.80
2014,02,21,20,42,0.80
2014,02,21,20,43,0.80
2014,02,21,20,44,0.80
2014,02,21,20,45,0.80
2014,02,21,20,46,0.70
2014,02,21,20,47,0.70
2014,02,21,20,48,0.70
2014,02,21,20,49,0.70
2014,02,21,20,50,0.70
2014,02,21,20,51,0.70
2014,02,21,20,52,0.70
2014,02,21,20,53,0.70
2014,02,21,20,54,0.70
2014,02,21,20,55,0.70
2014,02,21,20,56,0.70
2014,02,21,20,57,0.70
2014,02,21,20,58,0.70
2014,02,21,20,59,0.70
2014,02,21,21,00,0.70
2014,02,21,21,01,0.70
2014,02,21,21,02,0.70
2014,02,21,21,03,0.70
2014,02,21,21,04,0.70
2014,02,21,21,05,0.70
2014,02,21,21,06,0.70
2014,02,21,21,07,0.70
2014,02,21,21,08,0.70
2014,02,21,21,09,0.70
2014,02,21,21,10,0.70
2014,02,21,21,11,0.70
2014,02,21,21,12,0.70
2014,02,21,21,13,0.70
2014,02,21,21,14,0.70
2014,02,21,21,15,0.70
2014,02,21,21,16,0.70
2014,02,21,21,17,0.70
2014,02,21,21,18,0.70
2014,02,21,21,19,0.70
2014,02,21,21,20,0.70
2014,02,21,21,21,0.70
2014,02,21,21,22,0.70
2014,02,21,21,23,0.70
2014,02,21,21,24,0.70
2014,02,21,21,25,0.70
2014,02,21,21,26,0.70
2014,02,21,21,27,0.70
2014,02,21,21,28,0.80
2014,02,21,21,29,0.80
2014,02,21,21,30,0.80
2014,02,21,21,31,0.80
2014,02,21,21,32,0.80
2014,02,21,21,33,0.80
2014,02,21,21,34,0.80
2014,02,21,21,35,0.80
2014,02,21,21,36,0.80
2014,02,21,21,37,0.80
2014,02,21,21,38,0.80
2014,02,21,21,39,0.80
2014,02,21,21,40,0.90
2014,02,21,21,41,0.90
2014,02,21,21,42,0.90
2014,02,21,21,43,0.90
2014,02,21,21,44,0.90
2014,02,21,21,45,0.90
2014,02,21,21,46,0.90
2014,02,21,21,47,0.90
2014,02,21,21,48,0.90
2014,02,21,21,49,0.90
2014,02,21,21,50,0.90
2014,02,21,21,51,0.90
2014,02,21,21,52,0.90
2014,02,21,21,53,0.90
2014,02,21,21,54,0.90
2014,02,21,21,55,0.90
2014,02,21,21,56,0.90
2014,02,21,21,57,0.90
2014,02,21,21,58,0.90
2014,02,21,21,59,0.90
2014,02,21,22,00,0.80
2014,02,21,22,01,0.80
2014,02,21,22,02,0.80
2014,02,21,22,03,0.80
2014,02,21,22,04,0.80
2014,02,21,22,05,0.80
2014,02,21,22,06,0.80
2014,02,21,22,07,0.80
2014,02,21,22,08,0.80
2014,02,21,22,09,0.80
2014,02,21,22,10,0.80
2014,02,21,22,11,0.80
2014,02,21,22,12,0.70
2014,02,21,22,13,0.70
2014,02,21,22,14,0.70
2014,02,21,22,15,0.70
2014,02,21,22,16,0.70
2014,02,21,22,17,0.70
2014,02,21,22,18,0.70
2014,02,21,22,19,0.60
2014,02,21,22,20,0.60
2014,02,21,22,21,0.60
2014,02,21,22,22,0.60
2014,02,21,22,23,0.60
2014,02,21,22,24,0.60
2014,02,21,22,25,0.60
2014,02,21,22,26,0.60
2014,02,21,22,27,0.50
2014,02,21,22,28,0.50
2014,02,21,22,29,0.50
2014,02,21,22,30,0.50
2014,02,21,22,31,0.40
2014,02,21,22,32,0.40
2014,02,21,22,33,0.40
2014,02,21,22,34,0.40
2014,02,21,22,35,0.40
2014,02,21,22,36,0.40
2014,02,21,22,37,0.40
2014,02,21,22,38,0.40
2014,02,21,22,39,0.40
2014,02,21,22,40,0.40
2014,02,21,22,41,0.40
2014,02,21,22,42,0.40
2014,02,21,22,43,0.40
2014,02,21,22,44,0.40
2014,02,21,22,45,0.40
2014,02,21,22,46,0.40
2014,02,21,22,47,0.40
2014,02,21,22,48,0.40
2014,02,21,22,49,0.40
2014,02,21,22,50,0.40
2014,02,21,22,51,0.40
2014,02,21,22,52,0.40
2014,02,21,22,53,0.30
2014,02,21,22,54,0.30
2014,02,21,22,55,0.30
2014,02,21,22,56,0.30
2014,02,21,22,57,0.30
2014,02,21,22,58,0.30
2014,02,21,22,59,0.30
2014,02,21,23,00,0.30
2014,02,21,23,01,0.30
2014,02,21,23,02,0.30
2014,02,21,23,03,0.30
2014,02,21,23,04,0.30
2014,02,21,23,05,0.30
2014,02,21,23,06,0.30
2014,02,21,23,07,0.30
2014,02,21,23,08,0.30
2014,02,21,23,09,0.20
2014,02,21,23,10,0.20
2014,02,21,23,11,0.20
2014,02,21,23,12,0.20
2014,02,21,23,13,0.20
2014,02,21,23,14,0.20
2014,02,21,23,15,0.20
2014,02,21,23,16,0.20
2014,02,21,23,17,0.20
2014,02,21,23,18,0.20
2014,02,21,23,19,0.20
2014,02,21,23,20,0.20
2014,02,21,23,21,0.20
2014,02,21,23,22,0.20
2014,02,21,23,23,0.20
2014,02,21,23,24,0.20
2014,02,21,23,25,0.20
2014,02,21,23,26,0.20
2014,02,21,23,27,0.20
2014,02,21,23,28,0.20
2014,02,21,23,29,0.20
2014,02,21,23,30,0.20
2014,02,21,23,31,0.20
2014,02,21,23,32,0.20
2014,02,21,23,33,0.20
2014,02,21,23,34,0.20
2014,02,21,23,35,0.20
2014,02,21,23,36,0.20
2014,02,21,23,37,0.20
2014,02,21,23,38,0.20
2014,02,21,23,39,0.20
2014,02,21,23,40,0.20
2014,02,21,23,41,0.20
2014,02,21,23,42,0.20
2014,02,21,23,43,0.20
2014,02,21,23,44,0.20
2014,02,21,23,45,0.20
2014,02,21,23,46,0.20
2014,02,21,23,47,0.20
2014,02,21,23,48,0.20
2014,02,21,23,49,0.20
2014,02,21,23,50,0.20
2014,02,21,23,51,0.20
2014,02,21,23,52,0.20
2014,02,21,23,53,0.20
2014,02,21,23,54,0.20
2014,02,21,23,55,0.20
2014,02,21,23,56,0.20
2014,02,21,23,57,0.20
2014,02,21,23,58,0.20
2014,02,21,23,59,0.20
